Clarksburg, WV

6:18 AM EST on December 15, 2019 (GMT -0500)
Benedum

Weather History for KCKB - October, 2019

Change the Weather History Date:

Thursday, October 24, 2019

  Actual Average Record
Temperature  
Mean Temperature 54 °F -  
Max Temperature 72 °F 63 °F 83 °F (1947)
Min Temperature 36 °F 36 °F 21 °F (1964)
Degree Days  
Heating Degree Days 11    
Month to date heating degree days 137  
Growing Degree Days 4 (Base 50)    
Moisture  
Dew Point 32 °F    
Average Humidity 52    
Maximum Humidity 85    
Minimum Humidity 19    
Precipitation  
Precipitation 0.00 in - - ()
Month to date precipitation 1.91  
Year to date precipitation 33.98  
Sea Level Pressure  
Sea Level Pressure 30.25 in    
Wind  
Wind Speed 2 mph (WSW)    
Max Wind Speed 12 mph    
Max Gust Speed 14 mph    
Visibility 10 miles    
Events      
Averages and records for this station are not official NWS values.
T = Trace of Precipitation, MM = Missing Value Source: NWS Daily Summary

Daily Weather History Graph

Daily Weather History Graph

Search for Another Location

Airport or City:

Astronomy

Oct. 24, 2019 Rise Set
Actual Time 7:39 AM EDT 6:29 PM EDT
Civil Twilight 7:12 AM EDT 6:57 PM EDT
Nautical Twilight 6:41 AM EDT 7:28 PM EDT
Astronomical Twilight 6:10 AM EDT 7:59 PM EDT
Moon 3:10 AM EDT (10/24) 4:54 PM EDT (10/24)
Length of Visible Light 11h 44m
Length of Day
10h 49m
Waning Crescent, 17% of the Moon is Illuminated
Oct 24
Waning Crescent
Oct 27
New
Nov 4
First Quarter
Nov 12
Full
Nov 19
Last Quarter

Hourly Weather History & Observations

Time (EDT) Temp. Windchill Dew Point Humidity Pressure Visibility Wind Dir Wind Speed Gust Speed Precip Events Conditions
12:53 AM 39.9 °F - 32.0 °F 73% 30.22 in 10.0 mi Calm Calm - N/A   Clear
1:53 AM 42.1 °F - 32.0 °F 67% 30.23 in 10.0 mi Calm Calm - N/A   Clear
2:53 AM 37.9 °F - 33.1 °F 83% 30.24 in 10.0 mi Calm Calm - N/A   Clear
3:53 AM 37.0 °F - 30.9 °F 79% 30.23 in 10.0 mi Calm Calm - N/A   Clear
4:53 AM 42.1 °F - 32.0 °F 67% 30.22 in 10.0 mi Calm Calm - N/A   Clear
5:53 AM 39.0 °F 34.8 °F 32.0 °F 76% 30.26 in 10.0 mi SSE 5.8 mph - N/A   Clear
6:53 AM 37.0 °F - 30.9 °F 79% 30.27 in 10.0 mi Calm Calm - N/A   Clear
7:53 AM 36.0 °F - 30.9 °F 82% 30.29 in 10.0 mi Calm Calm - N/A   Clear
8:53 AM 42.1 °F - 34.0 °F 73% 30.30 in 10.0 mi Calm Calm - N/A   Clear
9:53 AM 50.0 °F - 37.9 °F 63% 30.30 in 10.0 mi Calm Calm - N/A   Clear
10:53 AM 60.1 °F - 36.0 °F 41% 30.28 in 10.0 mi SSE 3.5 mph - N/A   Clear
11:53 AM 66.0 °F - 33.1 °F 29% 30.27 in 10.0 mi WSW 5.8 mph - N/A   Clear
12:53 PM 70.0 °F - 30.0 °F 23% 30.26 in 10.0 mi WSW 3.5 mph - N/A   Clear
1:53 PM 71.1 °F - 27.0 °F 19% 30.23 in 10.0 mi West 9.2 mph - N/A   Clear
2:53 PM 72.0 °F - 28.0 °F 20% 30.21 in 10.0 mi SW 5.8 mph - N/A   Clear
3:53 PM 72.0 °F - 26.1 °F 18% 30.21 in 10.0 mi WNW 4.6 mph - N/A   Clear
4:53 PM 71.1 °F - 27.0 °F 19% 30.21 in 10.0 mi West 6.9 mph - N/A   Clear
5:53 PM 70.0 °F - 27.0 °F 20% 30.21 in 10.0 mi West 3.5 mph - N/A   Clear
6:53 PM 62.1 °F - 30.9 °F 31% 30.22 in 10.0 mi Calm Calm - N/A   Clear
7:53 PM 57.0 °F - 33.1 °F 40% 30.24 in 10.0 mi Calm Calm - N/A   Clear
8:53 PM 53.1 °F - 36.0 °F 52% 30.25 in 10.0 mi Calm Calm - N/A   Clear
9:53 PM 51.1 °F - 36.0 °F 56% 30.26 in 10.0 mi Calm Calm - N/A   Clear
10:53 PM 48.0 °F - 35.1 °F 61% 30.26 in 10.0 mi Calm Calm - N/A   Clear
11:53 PM 45.0 °F - 36.0 °F 71% 30.25 in 10.0 mi Calm Calm - N/A   Clear